Time,TemperatureF,DewpointF,PressureIn,WindDirection,WindDirectionDegrees,WindSpeedMPH,WindSpeedGustMPH,Humidity,HourlyPrecipIn,Conditions,Clouds,dailyrainin,SoftwareType,DateUTC
2013-01-03 00:02:00,26.0,22.0,30.09,West,259,2.0,9.0,84,0.00,,,0.00,,2013-01-03 06:02:00,
2013-01-03 00:12:00,26.0,22.0,30.09,West,259,2.0,9.0,84,0.00,,,0.00,,2013-01-03 06:12:00,
2013-01-03 00:22:00,26.0,22.0,30.09,WSW,243,3.0,8.0,84,0.00,,,0.00,,2013-01-03 06:22:00,
2013-01-03 00:32:00,26.0,22.0,30.09,WSW,258,2.0,9.0,85,0.00,,,0.00,,2013-01-03 06:32:00,
2013-01-03 00:42:00,26.0,22.0,30.09,WSW,258,2.0,9.0,85,0.00,,,0.00,,2013-01-03 06:42:00,
2013-01-03 00:52:00,26.0,22.0,30.09,West,271,3.0,12.0,86,0.00,,,0.00,,2013-01-03 06:52:00,
2013-01-03 01:02:00,26.0,22.0,30.09,West,279,6.0,13.0,86,0.00,,,0.00,,2013-01-03 07:02:00,
2013-01-03 01:12:00,26.0,22.0,30.09,West,279,6.0,13.0,86,0.00,,,0.00,,2013-01-03 07:12:00,
2013-01-03 01:22:00,25.0,21.0,30.10,West,272,6.0,13.0,86,0.00,,,0.00,,2013-01-03 07:22:00,
2013-01-03 01:32:00,25.0,21.0,30.10,WSW,249,5.0,13.0,85,0.00,,,0.00,,2013-01-03 07:32:00,
2013-01-03 01:42:00,25.0,21.0,30.10,WSW,249,5.0,13.0,85,0.00,,,0.00,,2013-01-03 07:42:00,
2013-01-03 01:52:00,25.0,21.0,30.10,WNW,282,5.0,13.0,85,0.00,,,0.00,,2013-01-03 07:52:00,
2013-01-03 02:02:00,25.0,21.0,30.10,West,272,6.0,12.0,86,0.00,,,0.00,,2013-01-03 08:02:00,
2013-01-03 02:12:00,25.0,21.0,30.10,West,272,6.0,12.0,86,0.00,,,0.00,,2013-01-03 08:12:00,
2013-01-03 02:22:00,25.0,21.0,30.10,WNW,282,6.0,12.0,86,0.00,,,0.00,,2013-01-03 08:22:00,
2013-01-03 02:32:00,25.0,22.0,30.11,WSW,248,6.0,12.0,87,0.00,,,0.00,,2013-01-03 08:32:00,
2013-01-03 02:42:00,25.0,22.0,30.11,WSW,248,6.0,12.0,87,0.00,,,0.00,,2013-01-03 08:42:00,
2013-01-03 02:53:00,25.0,22.0,30.11,WSW,249,7.0,12.0,87,0.00,,,0.00,,2013-01-03 08:53:00,
2013-01-03 03:02:00,25.0,22.0,30.11,WSW,250,5.0,12.0,88,0.00,,,0.00,,2013-01-03 09:02:00,
2013-01-03 03:12:00,25.0,22.0,30.11,WSW,250,5.0,12.0,88,0.00,,,0.00,,2013-01-03 09:12:00,
2013-01-03 03:22:00,25.0,22.0,30.11,West,277,5.0,8.0,87,0.00,,,0.00,,2013-01-03 09:22:00,
2013-01-03 03:33:00,25.0,22.0,30.10,SW,218,3.0,7.0,88,0.00,,,0.00,,2013-01-03 09:33:00,
2013-01-03 03:43:00,25.0,22.0,30.10,SW,218,3.0,7.0,88,0.00,,,0.00,,2013-01-03 09:43:00,
2013-01-03 03:52:00,25.0,22.0,30.10,WSW,254,3.0,7.0,88,0.00,,,0.00,,2013-01-03 09:52:00,
2013-01-03 04:02:00,25.0,22.0,30.10,WSW,253,3.0,8.0,89,0.00,,,0.00,,2013-01-03 10:02:00,
2013-01-03 04:12:00,25.0,22.0,30.10,WSW,253,3.0,8.0,89,0.00,,,0.00,,2013-01-03 10:12:00,
2013-01-03 04:22:00,25.0,22.0,30.10,WNW,286,4.0,7.0,89,0.00,,,0.00,,2013-01-03 10:22:00,
2013-01-03 04:32:00,25.0,22.0,30.09,West,264,4.0,8.0,89,0.00,,,0.00,,2013-01-03 10:32:00,
2013-01-03 04:42:00,25.0,22.0,30.09,West,264,4.0,8.0,89,0.00,,,0.00,,2013-01-03 10:42:00,
2013-01-03 04:52:00,25.0,22.0,30.10,West,266,3.0,6.0,90,0.00,,,0.00,,2013-01-03 10:52:00,
2013-01-03 05:02:00,25.0,22.0,30.10,WSW,257,4.0,7.0,90,0.00,,,0.00,,2013-01-03 11:02:00,
2013-01-03 05:12:00,25.0,22.0,30.10,WSW,257,4.0,7.0,90,0.00,,,0.00,,2013-01-03 11:12:00,
2013-01-03 05:22:00,25.0,22.0,30.11,West,278,5.0,8.0,90,0.00,,,0.00,,2013-01-03 11:22:00,
2013-01-03 05:33:00,26.0,23.0,30.11,WNW,284,7.0,12.0,90,0.00,,,0.00,,2013-01-03 11:33:00,
2013-01-03 05:42:00,26.0,23.0,30.11,WNW,284,7.0,12.0,90,0.00,,,0.00,,2013-01-03 11:42:00,
2013-01-03 05:53:00,26.0,24.0,30.11,West,280,6.0,12.0,91,0.00,,,0.00,,2013-01-03 11:53:00,
2013-01-03 06:03:00,26.0,23.0,30.11,West,272,7.0,13.0,90,0.00,,,0.00,,2013-01-03 12:03:00,
2013-01-03 06:12:00,26.0,23.0,30.11,West,272,7.0,13.0,90,0.00,,,0.00,,2013-01-03 12:12:00,
2013-01-03 06:22:00,26.0,23.0,30.11,WSW,252,6.0,12.0,90,0.00,,,0.00,,2013-01-03 12:22:00,
2013-01-03 06:32:00,27.0,24.0,30.12,WNW,302,6.0,13.0,90,0.00,,,0.00,,2013-01-03 12:32:00,
2013-01-03 06:42:00,27.0,24.0,30.12,WNW,302,6.0,13.0,90,0.00,,,0.00,,2013-01-03 12:42:00,
2013-01-03 06:52:00,27.0,24.0,30.12,NW,309,8.0,14.0,90,0.00,,,0.00,,2013-01-03 12:52:00,
2013-01-03 07:02:00,27.0,24.0,30.13,West,279,9.0,15.0,90,0.00,,,0.00,,2013-01-03 13:02:00,
2013-01-03 07:12:00,27.0,24.0,30.13,West,279,9.0,15.0,90,0.00,,,0.00,,2013-01-03 13:12:00,
2013-01-03 07:22:00,27.0,24.0,30.13,West,269,6.0,12.0,89,0.00,,,0.00,,2013-01-03 13:22:00,
2013-01-03 07:33:00,27.0,24.0,30.14,West,274,6.0,12.0,88,0.00,,,0.00,,2013-01-03 13:33:00,
2013-01-03 07:42:00,27.0,24.0,30.14,West,274,6.0,12.0,88,0.00,,,0.00,,2013-01-03 13:42:00,
2013-01-03 07:52:00,27.0,24.0,30.14,West,273,5.0,10.0,88,0.00,,,0.00,,2013-01-03 13:52:00,
2013-01-03 08:03:00,27.0,24.0,30.15,West,273,4.0,8.0,88,0.00,,,0.00,,2013-01-03 14:03:00,
2013-01-03 08:12:00,27.0,24.0,30.15,West,273,4.0,8.0,88,0.00,,,0.00,,2013-01-03 14:12:00,
2013-01-03 08:22:00,27.0,24.0,30.16,WNW,290,5.0,8.0,88,0.00,,,0.00,,2013-01-03 14:22:00,
2013-01-03 08:33:00,27.0,24.0,30.16,West,271,6.0,9.0,88,0.00,,,0.00,,2013-01-03 14:33:00,
2013-01-03 08:42:00,27.0,24.0,30.16,West,271,6.0,9.0,88,0.00,,,0.00,,2013-01-03 14:42:00,
2013-01-03 08:53:00,27.0,24.0,30.16,West,270,5.0,12.0,88,0.00,,,0.00,,2013-01-03 14:53:00,
2013-01-03 09:03:00,27.0,24.0,30.16,West,263,6.0,12.0,87,0.00,,,0.00,,2013-01-03 15:03:00,
2013-01-03 09:12:00,27.0,24.0,30.16,West,263,6.0,12.0,87,0.00,,,0.00,,2013-01-03 15:12:00,
2013-01-03 09:22:00,27.0,24.0,30.17,West,267,6.0,12.0,87,0.00,,,0.00,,2013-01-03 15:22:00,
2013-01-03 09:33:00,27.0,24.0,30.17,West,281,6.0,15.0,87,0.00,,,0.00,,2013-01-03 15:33:00,
2013-01-03 09:43:00,27.0,24.0,30.17,West,281,6.0,15.0,87,0.00,,,0.00,,2013-01-03 15:43:00,
2013-01-03 09:53:00,27.0,24.0,30.18,West,270,5.0,20.0,88,0.00,,,0.00,,2013-01-03 15:53:00,
2013-01-03 10:03:00,26.0,23.0,30.19,WNW,296,8.0,13.0,87,0.00,,,0.00,,2013-01-03 16:03:00,
2013-01-03 10:12:00,26.0,23.0,30.19,WNW,296,8.0,13.0,87,0.00,,,0.00,,2013-01-03 16:12:00,
2013-01-03 10:22:00,25.0,22.0,30.19,WSW,257,7.0,14.0,88,0.00,,,0.00,,2013-01-03 16:22:00,
2013-01-03 10:33:00,24.0,21.0,30.19,West,279,9.0,14.0,89,0.00,,,0.00,,2013-01-03 16:33:00,
2013-01-03 10:43:00,24.0,21.0,30.19,West,279,9.0,14.0,89,0.00,,,0.00,,2013-01-03 16:43:00,
2013-01-03 10:52:00,24.0,21.0,30.19,West,264,9.0,15.0,88,0.00,,,0.00,,2013-01-03 16:52:00,
2013-01-03 11:03:00,24.0,21.0,30.19,West,280,7.0,15.0,89,0.00,,,0.00,,2013-01-03 17:03:00,
2013-01-03 11:12:00,24.0,21.0,30.19,West,280,7.0,15.0,89,0.00,,,0.00,,2013-01-03 17:12:00,
2013-01-03 11:23:00,24.0,21.0,30.19,West,281,7.0,14.0,89,0.00,,,0.00,,2013-01-03 17:23:00,
2013-01-03 11:33:00,24.0,21.0,30.19,West,276,7.0,12.0,88,0.00,,,0.00,,2013-01-03 17:33:00,
2013-01-03 11:43:00,24.0,21.0,30.19,West,276,7.0,12.0,88,0.00,,,0.00,,2013-01-03 17:43:00,
2013-01-03 11:52:00,25.0,22.0,30.19,West,277,5.0,13.0,88,0.00,,,0.00,,2013-01-03 17:52:00,
2013-01-03 12:03:00,25.0,22.0,30.19,West,269,6.0,12.0,88,0.00,,,0.00,,2013-01-03 18:03:00,
2013-01-03 12:13:00,25.0,22.0,30.19,West,269,6.0,12.0,88,0.00,,,0.00,,2013-01-03 18:13:00,
2013-01-03 12:22:00,25.0,22.0,30.19,West,259,6.0,12.0,88,0.00,,,0.00,,2013-01-03 18:22:00,
2013-01-03 12:33:00,25.0,22.0,30.19,West,271,6.0,13.0,87,0.00,,,0.00,,2013-01-03 18:33:00,
2013-01-03 12:42:00,25.0,22.0,30.19,West,271,6.0,13.0,87,0.00,,,0.00,,2013-01-03 18:42:00,
2013-01-03 12:53:00,25.0,22.0,30.19,West,261,7.0,12.0,87,0.00,,,0.00,,2013-01-03 18:53:00,
2013-01-03 13:03:00,25.0,22.0,30.19,West,259,5.0,12.0,87,0.00,,,0.00,,2013-01-03 19:03:00,
2013-01-03 13:12:00,25.0,22.0,30.19,West,259,5.0,12.0,87,0.00,,,0.00,,2013-01-03 19:12:00,
2013-01-03 14:03:00,25.0,21.0,30.20,West,271,6.0,12.0,85,0.00,,,0.00,,2013-01-03 20:03:00,
2013-01-03 14:12:00,25.0,21.0,30.20,West,271,6.0,12.0,85,0.00,,,0.00,,2013-01-03 20:12:00,
2013-01-03 14:22:00,25.0,21.0,30.20,WSW,245,6.0,12.0,85,0.00,,,0.00,,2013-01-03 20:22:00,
2013-01-03 14:33:00,24.0,20.0,30.21,West,263,6.0,13.0,84,0.00,,,0.00,,2013-01-03 20:33:00,
2013-01-03 14:42:00,24.0,20.0,30.21,West,263,6.0,13.0,84,0.00,,,0.00,,2013-01-03 20:42:00,
2013-01-03 14:53:00,24.0,20.0,30.21,WSW,249,7.0,12.0,84,0.00,,,0.00,,2013-01-03 20:53:00,
2013-01-03 15:02:00,23.0,19.0,30.22,West,278,5.0,9.0,85,0.00,,,0.00,,2013-01-03 21:02:00,
2013-01-03 15:12:00,23.0,19.0,30.22,West,278,5.0,9.0,85,0.00,,,0.00,,2013-01-03 21:12:00,
2013-01-03 15:22:00,23.0,19.0,30.22,West,271,9.0,13.0,84,0.00,,,0.00,,2013-01-03 21:22:00,
2013-01-03 15:36:00,23.0,19.0,30.23,WNW,286,6.0,14.0,84,0.00,,,0.00,,2013-01-03 21:36:00,
2013-01-03 15:48:00,23.0,19.0,30.23,WNW,286,6.0,14.0,84,0.00,,,0.00,,2013-01-03 21:48:00,
2013-01-03 16:03:00,23.0,19.0,30.24,WNW,291,6.0,12.0,83,0.00,,,0.00,,2013-01-03 22:03:00,
2013-01-03 16:12:00,23.0,19.0,30.24,WNW,291,6.0,12.0,83,0.00,,,0.00,,2013-01-03 22:12:00,
2013-01-03 16:22:00,22.0,18.0,30.24,WNW,283,5.0,10.0,83,0.00,,,0.00,,2013-01-03 22:22:00,
2013-01-03 16:33:00,23.0,19.0,30.25,West,277,6.0,8.0,83,0.00,,,0.00,,2013-01-03 22:33:00,
2013-01-03 16:42:00,23.0,19.0,30.25,West,277,6.0,8.0,83,0.00,,,0.00,,2013-01-03 22:42:00,
2013-01-03 16:52:00,23.0,19.0,30.25,West,266,5.0,13.0,83,0.00,,,0.00,,2013-01-03 22:52:00,
2013-01-03 17:02:00,23.0,19.0,30.26,West,277,5.0,12.0,83,0.00,,,0.00,,2013-01-03 23:02:00,
2013-01-03 17:12:00,23.0,19.0,30.26,West,277,5.0,12.0,83,0.00,,,0.00,,2013-01-03 23:12:00,
2013-01-03 17:22:00,22.0,18.0,30.26,WNW,283,6.0,9.0,83,0.00,,,0.00,,2013-01-03 23:22:00,
2013-01-03 17:33:00,22.0,18.0,30.27,West,275,5.0,8.0,83,0.00,,,0.00,,2013-01-03 23:33:00,
2013-01-03 17:42:00,22.0,18.0,30.27,West,275,5.0,8.0,83,0.00,,,0.00,,2013-01-03 23:42:00,
2013-01-03 17:52:00,22.0,18.0,30.27,West,277,5.0,7.0,84,0.00,,,0.00,,2013-01-03 23:52:00,
2013-01-03 18:03:00,21.0,17.0,30.27,West,265,3.0,6.0,85,0.00,,,0.00,,2013-01-04 00:03:00,
2013-01-03 18:12:00,21.0,17.0,30.27,West,265,3.0,6.0,85,0.00,,,0.00,,2013-01-04 00:12:00,
2013-01-03 18:22:00,21.0,17.0,30.27,West,273,5.0,8.0,86,0.00,,,0.00,,2013-01-04 00:22:00,
2013-01-03 18:32:00,20.0,16.0,30.27,WNW,283,5.0,12.0,85,0.00,,,0.00,,2013-01-04 00:32:00,
2013-01-03 18:42:00,20.0,16.0,30.27,WNW,283,5.0,12.0,85,0.00,,,0.00,,2013-01-04 00:42:00,
2013-01-03 18:52:00,20.0,16.0,30.28,WSW,239,5.0,8.0,85,0.00,,,0.00,,2013-01-04 00:52:00,
2013-01-03 19:02:00,19.0,15.0,30.28,West,260,5.0,8.0,85,0.00,,,0.00,,2013-01-04 01:02:00,
2013-01-03 19:12:00,19.0,15.0,30.28,West,260,5.0,8.0,85,0.00,,,0.00,,2013-01-04 01:12:00,
2013-01-03 19:22:00,19.0,16.0,30.28,West,266,6.0,10.0,86,0.00,,,0.00,,2013-01-04 01:22:00,
2013-01-03 19:32:00,19.0,16.0,30.28,WSW,249,3.0,8.0,86,0.00,,,0.00,,2013-01-04 01:32:00,
2013-01-03 19:42:00,19.0,16.0,30.28,WSW,249,3.0,8.0,86,0.00,,,0.00,,2013-01-04 01:42:00,
2013-01-03 19:52:00,18.0,15.0,30.28,West,259,2.0,6.0,86,0.00,,,0.00,,2013-01-04 01:52:00,
2013-01-03 20:02:00,18.0,15.0,30.28,WNW,283,3.0,7.0,86,0.00,,,0.00,,2013-01-04 02:02:00,
2013-01-03 20:12:00,18.0,15.0,30.28,WNW,283,3.0,7.0,86,0.00,,,0.00,,2013-01-04 02:12:00,
2013-01-03 20:22:00,18.0,15.0,30.29,WNW,287,3.0,8.0,87,0.00,,,0.00,,2013-01-04 02:22:00,
2013-01-03 20:32:00,17.0,14.0,30.29,West,278,3.0,6.0,87,0.00,,,0.00,,2013-01-04 02:32:00,
2013-01-03 20:42:00,17.0,14.0,30.29,West,278,3.0,6.0,87,0.00,,,0.00,,2013-01-04 02:42:00,
2013-01-03 20:52:00,17.0,14.0,30.29,West,269,3.0,8.0,87,0.00,,,0.00,,2013-01-04 02:52:00,
2013-01-03 21:02:00,17.0,14.0,30.27,West,270,2.0,5.0,87,0.00,,,0.00,,2013-01-04 03:02:00,
2013-01-03 21:12:00,17.0,14.0,30.27,West,270,2.0,5.0,87,0.00,,,0.00,,2013-01-04 03:12:00,
2013-01-03 21:22:00,16.0,13.0,30.27,WSW,248,2.0,7.0,87,0.00,,,0.00,,2013-01-04 03:22:00,
2013-01-03 21:32:00,15.0,12.0,30.27,WSW,247,3.0,6.0,88,0.00,,,0.00,,2013-01-04 03:32:00,
2013-01-03 21:42:00,15.0,12.0,30.27,WSW,247,3.0,6.0,88,0.00,,,0.00,,2013-01-04 03:42:00,
2013-01-03 21:52:00,15.0,12.0,30.27,WSW,258,4.0,8.0,88,0.00,,,0.00,,2013-01-04 03:52:00,
2013-01-03 22:02:00,15.0,12.0,30.27,WSW,254,2.0,6.0,88,0.00,,,0.00,,2013-01-04 04:02:00,
2013-01-03 22:12:00,15.0,12.0,30.27,WSW,254,2.0,6.0,88,0.00,,,0.00,,2013-01-04 04:12:00,
2013-01-03 22:22:00,15.0,12.0,30.27,West,276,5.0,8.0,88,0.00,,,0.00,,2013-01-04 04:22:00,
2013-01-03 22:32:00,15.0,12.0,30.27,West,276,6.0,13.0,88,0.00,,,0.00,,2013-01-04 04:32:00,
2013-01-03 22:42:00,15.0,12.0,30.27,West,276,6.0,13.0,88,0.00,,,0.00,,2013-01-04 04:42:00,
2013-01-03 22:52:00,15.0,12.0,30.28,West,264,6.0,13.0,87,0.00,,,0.00,,2013-01-04 04:52:00,
2013-01-03 23:03:00,15.0,12.0,30.28,West,261,10.0,17.0,86,0.00,,,0.00,,2013-01-04 05:03:00,
2013-01-03 23:12:00,15.0,12.0,30.28,West,261,10.0,17.0,86,0.00,,,0.00,,2013-01-04 05:12:00,
2013-01-03 23:22:00,15.0,12.0,30.28,West,276,6.0,14.0,86,0.00,,,0.00,,2013-01-04 05:22:00,
2013-01-03 23:33:00,14.0,10.0,30.28,West,269,7.0,13.0,85,0.00,,,0.00,,2013-01-04 05:33:00,
2013-01-03 23:42:00,14.0,10.0,30.28,West,269,7.0,13.0,85,0.00,,,0.00,,2013-01-04 05:42:00,
2013-01-03 23:52:00,14.0,10.0,30.27,West,273,6.0,13.0,85,0.00,,,0.00,,2013-01-04 05:52:00,